Time,TemperatureF,DewpointF,PressureIn,WindDirection,WindDirectionDegrees,WindSpeedMPH,WindSpeedGustMPH,Humidity,HourlyPrecipIn,Conditions,Clouds,dailyrainin,SoftwareType,DateUTC
2013-05-23 00:00:00,72.7,26.7,29.92,SW,223,1.0,7.0,18,0.00,CLR,,0.00,WeatherDisplay:10.37,2013-05-23 07:00:00,
2013-05-23 00:05:00,72.7,26.7,29.93,SW,221,3.0,7.0,18,0.00,CLR,,0.00,WeatherDisplay:10.37,2013-05-23 07:05:00,
2013-05-23 00:10:00,72.5,26.5,29.93,SW,217,0.0,7.0,18,0.00,CLR,,0.00,WeatherDisplay:10.37,2013-05-23 07:10:00,
2013-05-23 00:20:00,72.1,26.3,29.93,South,190,0.0,0.0,18,0.00,CLR,,0.00,WeatherDisplay:10.37,2013-05-23 07:20:00,
2013-05-23 00:30:00,71.8,26.0,29.93,SSE,167,0.0,0.0,18,0.00,CLR,,0.00,WeatherDisplay:10.37,2013-05-23 07:30:00,
2013-05-23 00:40:00,71.2,25.5,29.93,SE,135,0.0,0.0,18,0.00,CLR,,0.00,WeatherDisplay:10.37,2013-05-23 07:40:00,
2013-05-23 00:50:00,70.4,26.2,29.93,SE,135,0.0,0.0,19,0.00,CLR,,0.00,WeatherDisplay:10.37,2013-05-23 07:50:00,
2013-05-23 01:00:00,69.4,25.3,29.93,East,85,0.0,0.0,19,0.00,CLR,,0.00,WeatherDisplay:10.37,2013-05-23 08:00:00,
2013-05-23 01:05:00,68.8,24.8,29.93,ENE,72,0.0,0.0,19,0.00,CLR,,0.00,WeatherDisplay:10.37,2013-05-23 08:05:00,
2013-05-23 01:10:00,68.5,25.8,29.93,ENE,68,0.0,0.0,20,0.00,CLR,,0.00,WeatherDisplay:10.37,2013-05-23 08:10:00,
2013-05-23 01:20:00,67.2,24.7,29.93,ENE,68,0.0,0.0,20,0.00,CLR,,0.00,WeatherDisplay:10.37,2013-05-23 08:20:00,
2013-05-23 01:30:00,66.4,26.3,29.93,ENE,68,0.0,0.0,22,0.00,CLR,,0.00,WeatherDisplay:10.37,2013-05-23 08:30:00,
2013-05-23 01:40:00,65.4,25.5,29.93,ENE,68,0.0,0.0,22,0.00,CLR,,0.00,WeatherDisplay:10.37,2013-05-23 08:40:00,
2013-05-23 01:50:00,64.8,25.0,29.92,ENE,68,0.0,0.0,22,0.00,CLR,,0.00,WeatherDisplay:10.37,2013-05-23 08:50:00,
2013-05-23 02:00:00,64.0,25.5,29.92,ENE,68,0.0,0.0,23,0.00,CLR,,0.00,WeatherDisplay:10.37,2013-05-23 09:00:00,
2013-05-23 02:05:00,63.7,25.1,29.92,ENE,68,0.0,0.0,23,0.00,CLR,,0.00,WeatherDisplay:10.37,2013-05-23 09:05:00,
2013-05-23 02:10:00,63.5,25.0,29.92,ENE,68,0.0,0.0,23,0.00,CLR,,0.00,WeatherDisplay:10.37,2013-05-23 09:10:00,
2013-05-23 02:20:00,63.1,24.7,29.93,ENE,71,0.0,0.0,23,0.00,CLR,,0.00,WeatherDisplay:10.37,2013-05-23 09:20:00,
2013-05-23 02:30:00,62.8,24.4,29.93,East,90,0.0,0.0,23,0.00,CLR,,0.00,WeatherDisplay:10.37,2013-05-23 09:30:00,
2013-05-23 02:40:00,62.4,24.1,29.93,East,81,0.0,0.0,23,0.00,CLR,,0.00,WeatherDisplay:10.37,2013-05-23 09:40:00,
2013-05-23 02:50:00,62.0,23.7,29.93,ENE,73,0.0,0.0,23,0.00,CLR,,0.00,WeatherDisplay:10.37,2013-05-23 09:50:00,
2013-05-23 03:00:00,61.7,24.5,29.93,ENE,68,0.0,0.0,24,0.00,CLR,,0.00,WeatherDisplay:10.37,2013-05-23 10:00:00,
2013-05-23 03:05:00,61.5,24.3,29.93,East,81,0.0,0.0,24,0.00,CLR,,0.00,WeatherDisplay:10.37,2013-05-23 10:05:00,
2013-05-23 03:10:00,61.2,24.0,29.93,East,90,0.0,0.0,24,0.00,CLR,,0.00,WeatherDisplay:10.37,2013-05-23 10:10:00,
2013-05-23 03:20:00,60.6,23.6,29.93,East,90,0.0,0.0,24,0.00,CLR,,0.00,WeatherDisplay:10.37,2013-05-23 10:20:00,
2013-05-23 03:30:00,60.2,24.2,29.93,East,90,0.0,0.0,25,0.00,CLR,,0.00,WeatherDisplay:10.37,2013-05-23 10:30:00,
2013-05-23 03:40:00,59.9,23.9,29.93,East,90,0.0,0.0,25,0.00,CLR,,0.00,WeatherDisplay:10.37,2013-05-23 10:40:00,
2013-05-23 03:50:00,59.6,23.7,29.93,East,90,0.0,0.0,25,0.00,CLR,,0.00,WeatherDisplay:10.37,2013-05-23 10:50:00,
2013-05-23 04:00:00,59.3,24.4,29.93,East,90,0.0,0.0,26,0.00,CLR,,0.00,WeatherDisplay:10.37,2013-05-23 11:00:00,
2013-05-23 04:05:00,59.0,24.1,29.94,East,90,0.0,0.0,26,0.00,CLR,,0.00,WeatherDisplay:10.37,2013-05-23 11:05:00,
2013-05-23 04:10:00,58.8,23.0,29.94,East,90,0.0,0.0,25,0.00,CLR,,0.00,WeatherDisplay:10.37,2013-05-23 11:10:00,
2013-05-23 04:20:00,58.8,24.0,29.94,East,90,0.0,0.0,26,0.00,CLR,,0.00,WeatherDisplay:10.37,2013-05-23 11:20:00,
2013-05-23 04:30:00,58.8,24.0,29.94,East,90,0.0,0.0,26,0.00,CLR,,0.00,WeatherDisplay:10.37,2013-05-23 11:30:00,
2013-05-23 04:40:00,58.3,23.5,29.94,East,100,0.0,0.0,26,0.00,CLR,,0.00,WeatherDisplay:10.37,2013-05-23 11:40:00,
2013-05-23 04:50:00,58.3,23.5,29.94,ESE,112,0.0,0.0,26,0.00,CLR,,0.00,WeatherDisplay:10.37,2013-05-23 11:50:00,
2013-05-23 05:00:00,58.1,23.3,29.94,ESE,112,0.0,0.0,26,0.00,CLR,,0.00,WeatherDisplay:10.37,2013-05-23 12:00:00,
2013-05-23 05:05:00,58.1,24.3,29.94,ESE,112,0.0,0.0,27,0.00,CLR,,0.00,WeatherDisplay:10.37,2013-05-23 12:05:00,
2013-05-23 05:10:00,57.9,24.1,29.94,ESE,123,0.0,0.0,27,0.00,CLR,,0.00,WeatherDisplay:10.37,2013-05-23 12:10:00,
2013-05-23 05:20:00,57.9,24.1,29.94,SSE,163,0.0,0.0,27,0.00,CLR,,0.00,WeatherDisplay:10.37,2013-05-23 12:20:00,
2013-05-23 05:30:00,57.7,23.9,29.95,SSW,202,0.0,0.0,27,0.00,CLR,,0.00,WeatherDisplay:10.37,2013-05-23 12:30:00,
2013-05-23 05:40:00,57.7,23.9,29.95,SSW,202,0.0,0.0,27,0.00,CLR,,0.00,WeatherDisplay:10.37,2013-05-23 12:40:00,
2013-05-23 05:50:00,57.7,24.8,29.95,SSW,202,0.0,0.0,28,0.00,CLR,,0.00,WeatherDisplay:10.37,2013-05-23 12:50:00,
2013-05-23 06:00:00,57.8,24.9,29.95,SSW,202,0.0,0.0,28,0.00,CLR,,0.00,WeatherDisplay:10.37,2013-05-23 13:00:00,
2013-05-23 06:10:00,57.9,25.8,29.95,SSW,202,0.0,0.0,29,0.00,CLR,,0.00,WeatherDisplay:10.37,2013-05-23 13:10:00,
2013-05-23 06:20:00,58.8,26.6,29.96,NNE,22,0.0,0.0,29,0.00,CLR,,0.00,WeatherDisplay:10.37,2013-05-23 13:20:00,
2013-05-23 06:30:00,58.8,26.6,29.96,SW,231,0.0,0.0,29,0.00,CLR,,0.00,WeatherDisplay:10.37,2013-05-23 13:30:00,
2013-05-23 06:40:00,59.5,27.2,29.96,SW,225,0.0,0.0,29,0.00,CLR,,0.00,WeatherDisplay:10.37,2013-05-23 13:40:00,
2013-05-23 06:50:00,60.4,28.8,29.97,SW,225,0.0,0.0,30,0.00,CLR,,0.00,WeatherDisplay:10.37,2013-05-23 13:50:00,
2013-05-23 07:00:00,61.3,29.6,29.97,WSW,255,0.0,0.0,30,0.00,CLR,,0.00,WeatherDisplay:10.37,2013-05-23 14:00:00,
2013-05-23 07:05:00,61.7,29.9,29.97,West,275,0.0,0.0,30,0.00,CLR,,0.00,WeatherDisplay:10.37,2013-05-23 14:05:00,
2013-05-23 07:10:00,61.9,29.3,29.97,WNW,296,0.0,0.0,29,0.00,CLR,,0.00,WeatherDisplay:10.37,2013-05-23 14:10:00,
2013-05-23 07:20:00,63.3,29.6,29.97,NNW,338,0.0,0.0,28,0.00,CLR,,0.00,WeatherDisplay:10.37,2013-05-23 14:20:00,
2013-05-23 07:30:00,64.4,30.5,29.98,North,354,0.0,0.0,28,0.00,CLR,,0.00,WeatherDisplay:10.37,2013-05-23 14:30:00,
2013-05-23 07:40:00,65.5,30.6,29.98,North,358,0.0,0.0,27,0.00,CLR,,0.00,WeatherDisplay:10.37,2013-05-23 14:40:00,
2013-05-23 07:50:00,66.8,31.7,29.99,NNE,27,1.0,2.0,27,0.00,CLR,,0.00,WeatherDisplay:10.37,2013-05-23 14:50:00,
2013-05-23 08:00:00,67.7,31.5,29.99,NNE,33,0.0,0.0,26,0.00,CLR,,0.00,WeatherDisplay:10.37,2013-05-23 15:00:00,
2013-05-23 08:05:00,68.5,32.3,30.00,NNE,32,0.0,0.0,26,0.00,CLR,,0.00,WeatherDisplay:10.37,2013-05-23 15:05:00,
2013-05-23 08:10:00,68.7,32.4,30.00,NNE,32,0.0,0.0,26,0.00,CLR,,0.00,WeatherDisplay:10.37,2013-05-23 15:10:00,
2013-05-23 08:20:00,69.8,32.4,30.00,NNE,30,0.0,0.0,25,0.00,CLR,,0.00,WeatherDisplay:10.37,2013-05-23 15:20:00,
2013-05-23 08:30:00,70.7,32.1,30.00,NNE,22,0.0,0.0,24,0.00,CLR,,0.00,WeatherDisplay:10.37,2013-05-23 15:30:00,
2013-05-23 08:40:00,71.9,33.2,30.00,NNE,28,0.0,0.0,24,0.00,CLR,,0.00,WeatherDisplay:10.37,2013-05-23 15:40:00,
2013-05-23 08:50:00,73.0,33.0,30.00,NE,53,0.0,0.0,23,0.00,CLR,,0.00,WeatherDisplay:10.37,2013-05-23 15:50:00,
2013-05-23 09:00:00,74.1,32.8,30.00,ENE,58,0.0,0.0,22,0.00,CLR,,0.00,WeatherDisplay:10.37,2013-05-23 16:00:00,
2013-05-23 09:05:00,74.5,33.1,30.00,ENE,68,0.0,0.0,22,0.00,CLR,,0.00,WeatherDisplay:10.37,2013-05-23 16:05:00,
2013-05-23 09:10:00,75.0,33.6,30.00,ENE,64,0.0,0.0,22,0.00,CLR,,0.00,WeatherDisplay:10.37,2013-05-23 16:10:00,
2013-05-23 09:20:00,76.1,33.3,30.00,East,101,0.0,0.0,21,0.00,CLR,,0.00,WeatherDisplay:10.37,2013-05-23 16:20:00,
2013-05-23 09:30:00,77.4,30.5,30.00,NE,45,0.0,0.0,18,0.00,CLR,,0.00,WeatherDisplay:10.37,2013-05-23 16:30:00,
2013-05-23 09:40:00,78.2,29.8,30.00,NE,45,0.0,0.0,17,0.00,CLR,,0.00,WeatherDisplay:10.37,2013-05-23 16:40:00,
2013-05-23 09:50:00,79.5,29.4,30.00,NE,35,0.0,0.0,16,0.00,CLR,,0.00,WeatherDisplay:10.37,2013-05-23 16:50:00,
2013-05-23 10:00:00,80.7,28.7,30.00,SSW,203,0.0,3.0,15,0.00,CLR,,0.00,WeatherDisplay:10.37,2013-05-23 17:00:00,
2013-05-23 10:05:00,81.3,29.2,30.00,SW,233,9.0,12.0,15,0.00,CLR,,0.00,WeatherDisplay:10.37,2013-05-23 17:05:00,
2013-05-23 10:10:00,81.7,29.5,30.00,West,259,6.0,9.0,15,0.00,CLR,,0.00,WeatherDisplay:10.37,2013-05-23 17:10:00,
2013-05-23 10:20:00,82.9,28.8,29.99,WSW,241,0.0,0.0,14,0.00,CLR,,0.00,WeatherDisplay:10.37,2013-05-23 17:20:00,
2013-05-23 10:30:00,83.7,29.4,29.99,SW,219,0.0,0.0,14,0.00,CLR,,0.00,WeatherDisplay:10.37,2013-05-23 17:30:00,
2013-05-23 10:40:00,84.2,29.8,29.99,SSW,209,0.0,0.0,14,0.00,CLR,,0.00,WeatherDisplay:10.37,2013-05-23 17:40:00,
2013-05-23 10:50:00,84.7,28.4,30.00,SSW,205,0.0,0.0,13,0.00,CLR,,0.00,WeatherDisplay:10.37,2013-05-23 17:50:00,
2013-05-23 11:00:00,84.9,30.4,29.99,SW,235,0.0,7.0,14,0.00,CLR,,0.00,WeatherDisplay:10.37,2013-05-23 18:00:00,
2013-05-23 11:05:00,85.3,30.7,30.00,WSW,245,0.0,0.0,14,0.00,CLR,,0.00,WeatherDisplay:10.37,2013-05-23 18:05:00,
2013-05-23 11:10:00,85.6,31.0,29.99,SW,219,6.0,6.0,14,0.00,CLR,,0.00,WeatherDisplay:10.37,2013-05-23 18:10:00,
2013-05-23 11:20:00,86.2,29.6,29.99,SW,232,0.0,6.0,13,0.00,CLR,,0.00,WeatherDisplay:10.37,2013-05-23 18:20:00,
2013-05-23 11:30:00,86.5,29.8,29.99,ESE,122,0.0,0.0,13,0.00,CLR,,0.00,WeatherDisplay:10.37,2013-05-23 18:30:00,
2013-05-23 11:40:00,86.9,30.1,29.99,SW,231,0.0,10.0,13,0.00,CLR,,0.00,WeatherDisplay:10.37,2013-05-23 18:40:00,
2013-05-23 11:50:00,87.3,30.4,29.99,South,176,0.0,0.0,13,0.00,CLR,,0.00,WeatherDisplay:10.37,2013-05-23 18:50:00,
2013-05-23 12:00:00,87.6,30.7,29.98,SW,219,2.0,12.0,13,0.00,CLR,,0.00,WeatherDisplay:10.37,2013-05-23 19:00:00,
2013-05-23 12:10:00,87.6,32.5,29.98,WSW,240,7.0,10.0,14,0.00,CLR,,0.00,WeatherDisplay:10.37,2013-05-23 19:10:00,
2013-05-23 12:20:00,88.3,31.2,29.98,SW,225,0.0,0.0,13,0.00,CLR,,0.00,WeatherDisplay:10.37,2013-05-23 19:20:00,
2013-05-23 12:30:00,88.6,31.5,29.98,WSW,242,3.0,5.0,13,0.00,CLR,,0.00,WeatherDisplay:10.37,2013-05-23 19:30:00,
2013-05-23 12:40:00,89.1,29.8,29.97,SSE,152,3.0,7.0,12,0.00,CLR,,0.00,WeatherDisplay:10.37,2013-05-23 19:40:00,
2013-05-23 12:50:00,89.4,28.0,29.97,SW,217,17.0,20.0,11,0.00,CLR,,0.00,WeatherDisplay:10.37,2013-05-23 19:50:00,
2013-05-23 13:00:00,89.8,28.3,29.97,South,191,5.0,7.0,11,0.00,CLR,,0.00,WeatherDisplay:10.37,2013-05-23 20:00:00,
2013-05-23 13:05:00,89.8,28.3,29.97,SW,214,2.0,6.0,11,0.00,CLR,,0.00,WeatherDisplay:10.37,2013-05-23 20:05:00,
2013-05-23 13:10:00,89.8,28.3,29.97,SSW,205,3.0,6.0,11,0.00,CLR,,0.00,WeatherDisplay:10.37,2013-05-23 20:10:00,
2013-05-23 13:20:00,90.0,28.4,29.97,WSW,246,6.0,8.0,11,0.00,CLR,,0.00,WeatherDisplay:10.37,2013-05-23 20:20:00,
2013-05-23 13:30:00,90.7,28.9,29.97,WSW,248,7.0,12.0,11,0.00,CLR,,0.00,WeatherDisplay:10.37,2013-05-23 20:30:00,
2013-05-23 13:40:00,91.4,29.5,29.97,WSW,248,0.0,0.0,11,0.00,CLR,,0.00,WeatherDisplay:10.37,2013-05-23 20:40:00,
2013-05-23 13:50:00,91.8,29.8,29.97,WSW,248,8.0,10.0,11,0.00,CLR,,0.00,WeatherDisplay:10.37,2013-05-23 20:50:00,
2013-05-23 14:00:00,91.6,29.6,29.97,WSW,248,1.0,13.0,11,0.00,CLR,,0.00,WeatherDisplay:10.37,2013-05-23 21:00:00,
2013-05-23 14:05:00,91.6,29.6,29.97,WSW,248,0.0,13.0,11,0.00,CLR,,0.00,WeatherDisplay:10.37,2013-05-23 21:05:00,
2013-05-23 14:10:00,91.6,29.6,29.96,WSW,248,0.0,0.0,11,0.00,CLR,,0.00,WeatherDisplay:10.37,2013-05-23 21:10:00,
2013-05-23 14:20:00,91.8,29.8,29.96,WSW,248,3.0,5.0,11,0.00,CLR,,0.00,WeatherDisplay:10.37,2013-05-23 21:20:00,
2013-05-23 14:30:00,91.9,29.9,29.96,WSW,248,3.0,7.0,11,0.00,CLR,,0.00,WeatherDisplay:10.37,2013-05-23 21:30:00,
2013-05-23 14:40:00,91.6,29.6,29.96,WSW,248,3.0,4.0,11,0.00,CLR,,0.00,WeatherDisplay:10.37,2013-05-23 21:40:00,
2013-05-23 14:50:00,91.8,29.8,29.95,WSW,248,0.0,0.0,11,0.00,CLR,,0.00,WeatherDisplay:10.37,2013-05-23 21:50:00,
2013-05-23 15:00:00,91.9,29.9,29.95,WSW,248,0.0,0.0,11,0.00,CLR,,0.00,WeatherDisplay:10.37,2013-05-23 22:00:00,
2013-05-23 15:05:00,92.3,30.2,29.95,WSW,248,0.0,5.0,11,0.00,CLR,,0.00,WeatherDisplay:10.37,2013-05-23 22:05:00,
2013-05-23 15:10:00,92.3,30.2,29.95,WSW,248,0.0,6.0,11,0.00,CLR,,0.00,WeatherDisplay:10.37,2013-05-23 22:10:00,
2013-05-23 15:20:00,92.1,30.0,29.94,WSW,248,5.0,9.0,11,0.00,CLR,,0.00,WeatherDisplay:10.37,2013-05-23 22:20:00,
2013-05-23 15:30:00,92.5,30.3,29.94,WSW,248,9.0,12.0,11,0.00,CLR,,0.00,WeatherDisplay:10.37,2013-05-23 22:30:00,
2013-05-23 15:40:00,92.9,30.7,29.94,WSW,248,6.0,8.0,11,0.00,CLR,,0.00,WeatherDisplay:10.37,2013-05-23 22:40:00,
2013-05-23 15:50:00,93.0,32.9,29.94,WSW,248,0.0,6.0,12,0.00,CLR,,0.00,WeatherDisplay:10.37,2013-05-23 22:50:00,
2013-05-23 16:00:00,92.7,30.5,29.94,WSW,248,0.0,7.0,11,0.00,CLR,,0.00,WeatherDisplay:10.37,2013-05-23 23:00:00,
2013-05-23 16:05:00,91.9,29.9,29.94,WSW,248,6.0,13.0,11,0.00,CLR,,0.00,WeatherDisplay:10.37,2013-05-23 23:05:00,
2013-05-23 16:10:00,91.4,33.6,29.94,WSW,248,7.0,13.0,13,0.00,CLR,,0.00,WeatherDisplay:10.37,2013-05-23 23:10:00,
2013-05-23 16:20:00,91.0,33.4,29.94,WSW,248,3.0,4.0,13,0.00,CLR,,0.00,WeatherDisplay:10.37,2013-05-23 23:20:00,
2013-05-23 16:30:00,90.7,33.1,29.94,WSW,248,7.0,8.0,13,0.00,CLR,,0.00,WeatherDisplay:10.37,2013-05-23 23:30:00,
2013-05-23 16:40:00,90.1,32.6,29.94,WSW,248,2.0,12.0,13,0.00,CLR,,0.00,WeatherDisplay:10.37,2013-05-23 23:40:00,
2013-05-23 16:50:00,89.4,32.1,29.94,WSW,248,0.0,10.0,13,0.00,CLR,,0.00,WeatherDisplay:10.37,2013-05-23 23:50:00,
2013-05-23 17:00:00,88.5,31.4,29.94,WSW,248,7.0,8.0,13,0.00,CLR,,0.00,WeatherDisplay:10.37,2013-05-24 00:00:00,
2013-05-23 17:05:00,88.3,31.2,29.94,WSW,248,5.0,10.0,13,0.00,CLR,,0.00,WeatherDisplay:10.37,2013-05-24 00:05:00,
2013-05-23 17:10:00,88.1,32.9,29.94,WSW,248,6.0,6.0,14,0.00,CLR,,0.00,WeatherDisplay:10.37,2013-05-24 00:10:00,
2013-05-23 17:20:00,87.1,32.1,29.94,WSW,248,0.0,8.0,14,0.00,CLR,,0.00,WeatherDisplay:10.37,2013-05-24 00:20:00,
2013-05-23 17:30:00,86.6,31.7,29.94,WSW,248,8.0,9.0,14,0.00,CLR,,0.00,WeatherDisplay:10.37,2013-05-24 00:30:00,
2013-05-23 17:40:00,85.8,31.1,29.94,SW,235,6.0,12.0,14,0.00,CLR,,0.00,WeatherDisplay:10.37,2013-05-24 00:40:00,
2013-05-23 17:50:00,85.3,30.7,29.94,SW,214,5.0,11.0,14,0.00,CLR,,0.00,WeatherDisplay:10.37,2013-05-24 00:50:00,
2013-05-23 18:00:00,84.6,30.1,29.94,SSW,211,2.0,12.0,14,0.00,CLR,,0.00,WeatherDisplay:10.37,2013-05-24 01:00:00,
2013-05-23 18:10:00,84.0,29.7,29.94,SW,219,0.0,7.0,14,0.00,CLR,,0.00,WeatherDisplay:10.37,2013-05-24 01:10:00,
2013-05-23 18:20:00,83.3,29.1,29.95,SSW,199,5.0,7.0,14,0.00,CLR,,0.00,WeatherDisplay:10.37,2013-05-24 01:20:00,
2013-05-23 18:30:00,82.8,28.7,29.94,SW,219,8.0,12.0,14,0.00,CLR,,0.00,WeatherDisplay:10.37,2013-05-24 01:30:00,
2013-05-23 18:40:00,82.2,29.9,29.94,SW,215,9.0,10.0,15,0.00,CLR,,0.00,WeatherDisplay:10.37,2013-05-24 01:40:00,
2013-05-23 18:50:00,81.7,29.5,29.95,SW,226,0.0,8.0,15,0.00,CLR,,0.00,WeatherDisplay:10.37,2013-05-24 01:50:00,
2013-05-23 19:00:00,81.0,28.9,29.95,SW,229,0.0,8.0,15,0.00,CLR,,0.00,WeatherDisplay:10.37,2013-05-24 02:00:00,
2013-05-23 19:05:00,80.6,28.7,29.95,SW,214,6.0,9.0,15,0.00,CLR,,0.00,WeatherDisplay:10.37,2013-05-24 02:05:00,
2013-05-23 19:10:00,80.4,28.5,29.96,SW,214,5.0,7.0,15,0.00,CLR,,0.00,WeatherDisplay:10.37,2013-05-24 02:10:00,
2013-05-23 19:20:00,79.5,29.4,29.96,SW,217,6.0,6.0,16,0.00,CLR,,0.00,WeatherDisplay:10.37,2013-05-24 02:20:00,
2013-05-23 19:30:00,79.0,28.9,29.96,SW,222,8.0,9.0,16,0.00,CLR,,0.00,WeatherDisplay:10.37,2013-05-24 02:30:00,
2013-05-23 19:40:00,78.6,30.1,29.96,SW,228,0.0,10.0,17,0.00,CLR,,0.00,WeatherDisplay:10.37,2013-05-24 02:40:00,
2013-05-23 19:50:00,78.1,29.7,29.96,SW,236,10.0,12.0,17,0.00,CLR,,0.00,WeatherDisplay:10.37,2013-05-24 02:50:00,
2013-05-23 20:00:00,77.5,29.3,29.96,SW,221,5.0,5.0,17,0.00,CLR,,0.00,WeatherDisplay:10.37,2013-05-24 03:00:00,
2013-05-23 20:05:00,77.4,30.5,29.96,SW,220,9.0,12.0,18,0.00,CLR,,0.00,WeatherDisplay:10.37,2013-05-24 03:05:00,
2013-05-23 20:10:00,77.0,30.2,29.96,SW,225,10.0,12.0,18,0.00,CLR,,0.00,WeatherDisplay:10.37,2013-05-24 03:10:00,
2013-05-23 20:20:00,76.8,30.0,29.96,SW,217,7.0,13.0,18,0.00,CLR,,0.00,WeatherDisplay:10.37,2013-05-24 03:20:00,
2013-05-23 20:30:00,76.3,29.7,29.96,SW,233,9.0,12.0,18,0.00,CLR,,0.00,WeatherDisplay:10.37,2013-05-24 03:30:00,
2013-05-23 20:40:00,75.9,29.4,29.97,WSW,244,6.0,16.0,18,0.00,CLR,,0.00,WeatherDisplay:10.37,2013-05-24 03:40:00,
2013-05-23 20:50:00,75.7,30.5,29.97,SSW,211,9.0,12.0,19,0.00,CLR,,0.00,WeatherDisplay:10.37,2013-05-24 03:50:00,
2013-05-23 21:00:00,75.4,31.5,29.97,WSW,240,7.0,9.0,20,0.00,CLR,,0.00,WeatherDisplay:10.37,2013-05-24 04:00:00,
2013-05-23 21:05:00,75.4,31.5,29.97,SW,229,6.0,9.0,20,0.00,CLR,,0.00,WeatherDisplay:10.37,2013-05-24 04:05:00,
2013-05-23 21:10:00,75.0,31.2,29.97,WSW,238,10.0,11.0,20,0.00,CLR,,0.00,WeatherDisplay:10.37,2013-05-24 04:10:00,
2013-05-23 21:15:00,75.0,31.2,29.97,SW,227,8.0,12.0,20,0.00,CLR,,0.00,WeatherDisplay:10.37,2013-05-24 04:15:00,
2013-05-23 21:20:00,75.0,31.2,29.97,SW,226,7.0,8.0,20,0.00,CLR,,0.00,WeatherDisplay:10.37,2013-05-24 04:20:00,
2013-05-23 21:30:00,74.8,31.1,29.98,SW,224,0.0,6.0,20,0.00,CLR,,0.00,WeatherDisplay:10.37,2013-05-24 04:30:00,
2013-05-23 21:40:00,74.5,30.8,29.98,SSW,211,7.0,8.0,20,0.00,CLR,,0.00,WeatherDisplay:10.37,2013-05-24 04:40:00,
2013-05-23 21:50:00,74.1,31.7,29.98,SW,226,0.0,6.0,21,0.00,CLR,,0.00,WeatherDisplay:10.37,2013-05-24 04:50:00,
2013-05-23 21:55:00,73.9,31.5,29.99,SW,224,8.0,12.0,21,0.00,CLR,,0.00,WeatherDisplay:10.37,2013-05-24 04:55:00,
2013-05-23 22:00:00,73.9,31.5,29.99,SSW,208,7.0,12.0,21,0.00,CLR,,0.00,WeatherDisplay:10.37,2013-05-24 05:00:00,
2013-05-23 22:05:00,73.8,32.5,29.99,SSW,210,0.0,0.0,22,0.00,CLR,,0.00,WeatherDisplay:10.37,2013-05-24 05:05:00,
2013-05-23 22:10:00,73.8,32.5,29.99,SSW,211,6.0,8.0,22,0.00,CLR,,0.00,WeatherDisplay:10.37,2013-05-24 05:10:00,
2013-05-23 22:20:00,73.6,33.5,29.99,SSW,211,0.0,7.0,23,0.00,CLR,,0.00,WeatherDisplay:10.37,2013-05-24 05:20:00,
2013-05-23 22:30:00,73.2,34.2,30.00,SSW,209,0.0,0.0,24,0.00,CLR,,0.00,WeatherDisplay:10.37,2013-05-24 05:30:00,
2013-05-23 22:40:00,73.0,34.1,30.00,SW,219,7.0,7.0,24,0.00,CLR,,0.00,WeatherDisplay:10.37,2013-05-24 05:40:00,
2013-05-23 22:50:00,72.7,33.8,30.00,South,189,0.0,7.0,24,0.00,CLR,,0.00,WeatherDisplay:10.37,2013-05-24 05:50:00,
2013-05-23 23:00:00,72.3,34.5,30.00,SSW,204,0.0,0.0,25,0.00,CLR,,0.00,WeatherDisplay:10.37,2013-05-24 06:00:00,
2013-05-23 23:05:00,72.1,34.4,30.00,SSW,205,0.0,0.0,25,0.00,CLR,,0.00,WeatherDisplay:10.37,2013-05-24 06:05:00,
2013-05-23 23:10:00,72.0,35.2,30.00,South,190,0.0,0.0,26,0.00,CLR,,0.00,WeatherDisplay:10.37,2013-05-24 06:10:00,
2013-05-23 23:20:00,71.7,34.9,30.00,SSW,202,7.0,7.0,26,0.00,CLR,,0.00,WeatherDisplay:10.37,2013-05-24 06:20:00,
2013-05-23 23:30:00,71.4,34.7,30.00,SSW,211,0.0,6.0,26,0.00,CLR,,0.00,WeatherDisplay:10.37,2013-05-24 06:30:00,
2013-05-23 23:40:00,70.9,35.2,30.01,SSW,210,0.0,0.0,27,0.00,CLR,,0.00,WeatherDisplay:10.37,2013-05-24 06:40:00,
2013-05-23 23:50:00,70.7,35.1,30.01,ENE,68,0.0,4.0,27,0.00,CLR,,0.00,WeatherDisplay:10.37,2013-05-24 06:50:00,